Location: Boston
(42.3580°N, 71.0600°W)
Time: 13:05:08
(UTC-05:00)

Envisat - Pass Details

Date: 09 October 2017
Orbit: 764 x 766 km, 98.2° (Epoch: 14 December)

Event Time Altitude Azimuth Distance (km) Brightness Sun altitude
Exits shadow 20:04:34 49° 87° (E) 987 3.1 -21.6°
Maximum altitude 20:04:58 50° 71° (ENE) 973 3.1 -21.7°
Drops below altitude 10° 20:09:52 10° 357° (N) 2,314 5.6 -22.6°
Sets 20:12:14 0° 353° (N) 3,244 6.5 -23.0°
